When you browse on this site, cookies collect data to enhance your experience and personalize the content and advertising you see.
Visit our Privacy Policy to learn more. By continuing to use the site, you agree to this use of cookies and data.
  • In Romania
  • List of Countries
  • For 7 days
  • Water Temperature
  • Satellite Maps
  • Weather Map
  • Weather Widgets
  • user-avatar
    Login

    Hourly Weather Shahabad

    Today, 21 July, Sunday

    Time Temperature Precipitation Wind Pressure Humidity
    00:00 +29°C° 0 mm 4 mps 718 mmHg 75%
    01:00 +28°C° 0 mm 4 mps 718 mmHg 76%
    02:00 +28°C° 0 mm 4 mps 717 mmHg 78%
    03:00 +27°C° 0 mm 3 mps 717 mmHg 80%
    04:00 +27°C° 0 mm 3 mps 717 mmHg 82%
    05:00 +27°C° 0 mm 3 mps 717 mmHg 85%
    06:00 +27°C° 0 mm 3 mps 717 mmHg 81%
    07:00 +28°C° 0 mm 3 mps 718 mmHg 78%
    08:00 +28°C° 0 mm 4 mps 718 mmHg 74%
    09:00 +30°C° 0 mm 4 mps 718 mmHg 70%
    10:00 +32°C° 0 mm 4 mps 719 mmHg 66%
    11:00 +33°C° 0 mm 3 mps 719 mmHg 62%
    12:00 +33°C° 0.1 mm 3 mps 718 mmHg 61%
    13:00 +34°C° 0.1 mm 4 mps 717 mmHg 59%
    14:00 +35°C° 0.1 mm 4 mps 717 mmHg 57%
    15:00 +34°C° 1.4 mm 4 mps 716 mmHg 58%
    16:00 +34°C° 1.4 mm 3 mps 716 mmHg 58%
    17:00 +34°C° 1.4 mm 3 mps 716 mmHg 59%
    18:00 +33°C° 1.1 mm 3 mps 716 mmHg 63%
    19:00 +32°C° 1.1 mm 4 mps 717 mmHg 68%
    20:00 +30°C° 1.1 mm 4 mps 718 mmHg 72%
    21:00 +30°C° 0.7 mm 4 mps 718 mmHg 75%
    22:00 +29°C° 0.7 mm 4 mps 718 mmHg 77%
    23:00 +29°C° 0.7 mm 5 mps 718 mmHg 79%

    Tomorrow, 22 July, Monday

    Time Temperature Precipitation Wind Pressure Humidity
    00:00 +28°C° 0 mm 4 mps 718 mmHg 80%
    01:00 +28°C° 0 mm 4 mps 717 mmHg 82%
    02:00 +28°C° 0 mm 3 mps 717 mmHg 83%
    03:00 +28°C° 0 mm 3 mps 717 mmHg 83%
    04:00 +27°C° 0 mm 3 mps 717 mmHg 84%
    05:00 +27°C° 0 mm 3 mps 717 mmHg 85%
    06:00 +28°C° 0 mm 3 mps 717 mmHg 81%
    07:00 +29°C° 0 mm 4 mps 718 mmHg 78%
    08:00 +29°C° 0 mm 4 mps 718 mmHg 75%
    09:00 +30°C° 0 mm 4 mps 718 mmHg 71%
    10:00 +32°C° 0 mm 4 mps 718 mmHg 67%
    11:00 +33°C° 0 mm 4 mps 718 mmHg 63%
    12:00 +34°C° 0 mm 3 mps 718 mmHg 61%
    13:00 +34°C° 0 mm 3 mps 717 mmHg 59%
    14:00 +35°C° 0 mm 3 mps 716 mmHg 57%
    15:00 +35°C° 0.1 mm 3 mps 716 mmHg 57%
    16:00 +34°C° 0.1 mm 3 mps 716 mmHg 58%
    17:00 +34°C° 0.1 mm 3 mps 715 mmHg 58%
    18:00 +33°C° 1.2 mm 3 mps 716 mmHg 63%
    19:00 +31°C° 1.2 mm 3 mps 717 mmHg 68%
    20:00 +30°C° 1.2 mm 4 mps 717 mmHg 72%
    21:00 +30°C° 3 mm 4 mps 717 mmHg 74%
    22:00 +29°C° 3 mm 5 mps 717 mmHg 76%
    23:00 +29°C° 3 mm 5 mps 717 mmHg 78%

    Day after tomorrow, 23 July, Tuesday

    Time Temperature Precipitation Wind Pressure Humidity
    00:00 +28°C° 1.6 mm 5 mps 717 mmHg 80%
    01:00 +28°C° 1.6 mm 6 mps 716 mmHg 83%
    02:00 +27°C° 1.6 mm 6 mps 716 mmHg 85%
    03:00 +27°C° 0 mm 5 mps 716 mmHg 86%
    04:00 +27°C° 0 mm 5 mps 716 mmHg 87%
    05:00 +27°C° 0 mm 4 mps 715 mmHg 88%
    06:00 +28°C° 0 mm 4 mps 716 mmHg 85%
    07:00 +28°C° 0 mm 4 mps 717 mmHg 82%
    08:00 +29°C° 0 mm 4 mps 717 mmHg 79%
    09:00 +30°C° 0.5 mm 4 mps 717 mmHg 73%
    10:00 +33°C° 0.5 mm 4 mps 717 mmHg 68%
    11:00 +34°C° 0.5 mm 3 mps 717 mmHg 62%
    12:00 +34°C° 0.2 mm 3 mps 716 mmHg 59%
    13:00 +35°C° 0.2 mm 2 mps 716 mmHg 57%
    14:00 +34°C° 0.2 mm 1 mps 715 mmHg 54%
    15:00 +34°C° 0.2 mm 1 mps 715 mmHg 54%
    16:00 +35°C° 0.2 mm 1 mps 715 mmHg 54%
    17:00 +35°C° 0.2 mm 1 mps 715 mmHg 54%
    18:00 +34°C° 0.4 mm 1 mps 715 mmHg 59%
    19:00 +33°C° 0.4 mm 1 mps 716 mmHg 64%
    20:00 +32°C° 0.4 mm 2 mps 716 mmHg 69%
    21:00 +31°C° 0.9 mm 2 mps 717 mmHg 72%
    22:00 +30°C° 0.9 mm 2 mps 717 mmHg 75%
    23:00 +30°C° 0.9 mm 2 mps 717 mmHg 77%

    24 July, Wednesday

    Time Temperature Precipitation Wind Pressure Humidity
    00:00 +29°C° 0.1 mm 2 mps 717 mmHg 79%
    01:00 +29°C° 0.1 mm 2 mps 716 mmHg 80%
    02:00 +29°C° 0.1 mm 2 mps 716 mmHg 82%
    03:00 +29°C° 0.1 mm 1 mps 716 mmHg 83%
    04:00 +28°C° 0.1 mm 1 mps 716 mmHg 84%
    05:00 +28°C° 0.1 mm 1 mps 716 mmHg 85%
    06:00 +29°C° 1.1 mm 1 mps 716 mmHg 80%
    07:00 +30°C° 1.1 mm 1 mps 717 mmHg 75%
    08:00 +30°C° 1.1 mm 1 mps 717 mmHg 70%
    09:00 +31°C° 0.9 mm 2 mps 717 mmHg 65%
    10:00 +32°C° 0.9 mm 2 mps 717 mmHg 61%
    11:00 +34°C° 0.9 mm 2 mps 717 mmHg 56%
    12:00 +34°C° 0.7 mm 2 mps 717 mmHg 56%
    13:00 +35°C° 0.7 mm 2 mps 716 mmHg 56%
    14:00 +35°C° 0.7 mm 3 mps 715 mmHg 56%
    15:00 +34°C° 1.5 mm 4 mps 715 mmHg 62%
    16:00 +32°C° 1.5 mm 6 mps 715 mmHg 68%
    17:00 +31°C° 1.5 mm 8 mps 715 mmHg 75%
    18:00 +30°C° 0.7 mm 7 mps 716 mmHg 75%
    19:00 +29°C° 0.7 mm 7 mps 717 mmHg 76%
    20:00 +28°C° 0.7 mm 7 mps 717 mmHg 77%
    21:00 +28°C° 0.1 mm 6 mps 717 mmHg 78%
    22:00 +28°C° 0.1 mm 5 mps 718 mmHg 80%
    23:00 +27°C° 0.1 mm 4 mps 718 mmHg 81%

    25 July, Thursday

    Time Temperature Precipitation Wind Pressure Humidity
    00:00 +27°C° 0.1 mm 5 mps 718 mmHg 82%
    01:00 +27°C° 0.1 mm 5 mps 717 mmHg 83%
    02:00 +27°C° 0.1 mm 6 mps 717 mmHg 84%
    03:00 +27°C° 0.2 mm 6 mps 717 mmHg 85%
    04:00 +27°C° 0.2 mm 6 mps 717 mmHg 85%
    05:00 +27°C° 0.2 mm 6 mps 717 mmHg 86%
    06:00 +27°C° 0.1 mm 7 mps 718 mmHg 84%
    07:00 +27°C° 0.1 mm 7 mps 718 mmHg 81%
    08:00 +28°C° 0.1 mm 7 mps 719 mmHg 79%
    09:00 +29°C° 0.2 mm 8 mps 719 mmHg 76%
    10:00 +29°C° 0.2 mm 8 mps 719 mmHg 73%
    11:00 +31°C° 0.2 mm 9 mps 719 mmHg 71%
    12:00 +31°C° 0.1 mm 9 mps 719 mmHg 69%
    13:00 +31°C° 0.1 mm 9 mps 718 mmHg 67%
    14:00 +32°C° 0.1 mm 9 mps 718 mmHg 65%
    15:00 +31°C° 0.1 mm 9 mps 718 mmHg 66%
    16:00 +31°C° 0.1 mm 9 mps 718 mmHg 68%
    17:00 +31°C° 0.1 mm 8 mps 718 mmHg 70%
    18:00 +29°C° 0 mm 8 mps 718 mmHg 72%
    19:00 +28°C° 0 mm 8 mps 719 mmHg 74%
    20:00 +28°C° 0 mm 7 mps 719 mmHg 77%
    21:00 +28°C° 0 mm 7 mps 719 mmHg 78%
    22:00 +27°C° 0 mm 7 mps 720 mmHg 78%
    23:00 +27°C° 0 mm 7 mps 720 mmHg 79%

    26 July, Friday

    Time Temperature Precipitation Wind Pressure Humidity
    00:00 +27°C° 0 mm 6 mps 719 mmHg 80%
    01:00 +27°C° 0 mm 6 mps 719 mmHg 81%
    02:00 +26°C° 0 mm 6 mps 718 mmHg 82%
    03:00 +26°C° 0 mm 6 mps 718 mmHg 82%
    04:00 +26°C° 0 mm 6 mps 718 mmHg 82%
    05:00 +26°C° 0 mm 6 mps 718 mmHg 81%
    06:00 +26°C° 0 mm 6 mps 719 mmHg 80%
    07:00 +27°C° 0 mm 7 mps 719 mmHg 78%
    08:00 +27°C° 0 mm 7 mps 720 mmHg 77%
    09:00 +28°C° 0.1 mm 8 mps 720 mmHg 73%
    10:00 +29°C° 0.1 mm 8 mps 720 mmHg 69%
    11:00 +31°C° 0.1 mm 8 mps 720 mmHg 66%
    12:00 +31°C° 0.2 mm 9 mps 719 mmHg 65%
    13:00 +32°C° 0.2 mm 9 mps 719 mmHg 63%
    14:00 +32°C° 0.2 mm 10 mps 718 mmHg 62%
    15:00 +31°C° 0.1 mm 9 mps 718 mmHg 64%
    16:00 +29°C° 0.1 mm 9 mps 718 mmHg 67%
    17:00 +29°C° 0.1 mm 9 mps 718 mmHg 69%
    18:00 +28°C° 0 mm 8 mps 719 mmHg 72%
    19:00 +27°C° 0 mm 7 mps 720 mmHg 75%
    20:00 +27°C° 0 mm 7 mps 720 mmHg 78%
    21:00 +27°C° 0.2 mm 7 mps 720 mmHg 79%
    22:00 +26°C° 0.2 mm 7 mps 720 mmHg 80%
    23:00 +26°C° 0.2 mm 7 mps 721 mmHg 81%
    Show more